Year,Month,Day,Hour,Minute,Value (Times are PST for temperature in C)
2016,04,27,00,00,8.70
2016,04,27,00,01,8.70
2016,04,27,00,02,8.70
2016,04,27,00,03,8.70
2016,04,27,00,04,8.70
2016,04,27,00,05,8.60
2016,04,27,00,06,8.70
2016,04,27,00,07,8.70
2016,04,27,00,08,8.60
2016,04,27,00,09,8.60
2016,04,27,00,10,8.70
2016,04,27,00,11,8.60
2016,04,27,00,12,8.60
2016,04,27,00,13,8.60
2016,04,27,00,14,8.60
2016,04,27,00,15,8.70
2016,04,27,00,16,8.60
2016,04,27,00,17,8.60
2016,04,27,00,18,8.60
2016,04,27,00,19,8.60
2016,04,27,00,20,8.60
2016,04,27,00,21,8.60
2016,04,27,00,22,8.60
2016,04,27,00,23,8.60
2016,04,27,00,24,8.60
2016,04,27,00,25,8.60
2016,04,27,00,26,8.60
2016,04,27,00,27,8.60
2016,04,27,00,28,8.60
2016,04,27,00,29,8.60
2016,04,27,00,30,8.60
2016,04,27,00,31,8.60
2016,04,27,00,32,8.60
2016,04,27,00,33,8.60
2016,04,27,00,34,8.50
2016,04,27,00,35,8.50
2016,04,27,00,36,8.50
2016,04,27,00,37,8.50
2016,04,27,00,38,8.50
2016,04,27,00,39,8.50
2016,04,27,00,40,8.50
2016,04,27,00,41,8.50
2016,04,27,00,42,8.50
2016,04,27,00,43,8.50
2016,04,27,00,44,8.50
2016,04,27,00,45,8.50
2016,04,27,00,46,8.50
2016,04,27,00,47,8.50
2016,04,27,00,48,8.50
2016,04,27,00,49,8.50
2016,04,27,00,50,8.50
2016,04,27,00,51,8.50
2016,04,27,00,52,8.50
2016,04,27,00,53,8.50
2016,04,27,00,54,8.50
2016,04,27,00,55,8.50
2016,04,27,00,56,8.50
2016,04,27,00,57,8.50
2016,04,27,00,58,8.50
2016,04,27,00,59,8.50
2016,04,27,01,00,8.50
2016,04,27,01,01,8.50
2016,04,27,01,02,8.40
2016,04,27,01,03,8.40
2016,04,27,01,04,8.40
2016,04,27,01,05,8.40
2016,04,27,01,06,8.40
2016,04,27,01,07,8.40
2016,04,27,01,08,8.40
2016,04,27,01,09,8.40
2016,04,27,01,10,8.40
2016,04,27,01,11,8.40
2016,04,27,01,12,8.40
2016,04,27,01,13,8.30
2016,04,27,01,14,8.30
2016,04,27,01,15,8.30
2016,04,27,01,16,8.30
2016,04,27,01,17,8.30
2016,04,27,01,18,8.30
2016,04,27,01,19,8.30
2016,04,27,01,20,8.30
2016,04,27,01,21,8.30
2016,04,27,01,22,8.30
2016,04,27,01,23,8.20
2016,04,27,01,24,8.20
2016,04,27,01,25,8.20
2016,04,27,01,26,8.20
2016,04,27,01,27,8.20
2016,04,27,01,28,8.20
2016,04,27,01,29,8.20
2016,04,27,01,30,8.20
2016,04,27,01,31,8.20
2016,04,27,01,32,8.20
2016,04,27,01,33,8.20
2016,04,27,01,34,8.20
2016,04,27,01,35,8.20
2016,04,27,01,36,8.20
2016,04,27,01,37,8.20
2016,04,27,01,38,8.20
2016,04,27,01,39,8.20
2016,04,27,01,40,8.20
2016,04,27,01,41,8.30
2016,04,27,01,42,8.30
2016,04,27,01,43,8.20
2016,04,27,01,44,8.30
2016,04,27,01,45,8.30
2016,04,27,01,46,8.30
2016,04,27,01,47,8.30
2016,04,27,01,48,8.30
2016,04,27,01,49,8.30
2016,04,27,01,50,8.30
2016,04,27,01,51,8.30
2016,04,27,01,52,8.30
2016,04,27,01,53,8.30
2016,04,27,01,54,8.30
2016,04,27,01,55,8.30
2016,04,27,01,56,8.30
2016,04,27,01,57,8.30
2016,04,27,01,58,8.30
2016,04,27,01,59,8.30
2016,04,27,02,00,8.30
2016,04,27,02,01,8.30
2016,04,27,02,02,8.30
2016,04,27,02,03,8.30
2016,04,27,02,04,8.30
2016,04,27,02,05,8.30
2016,04,27,02,06,8.30
2016,04,27,02,07,8.30
2016,04,27,02,08,8.30
2016,04,27,02,09,8.30
2016,04,27,02,10,8.30
2016,04,27,02,11,8.30
2016,04,27,02,12,8.30
2016,04,27,02,13,8.30
2016,04,27,02,14,8.30
2016,04,27,02,15,8.30
2016,04,27,02,16,8.30
2016,04,27,02,17,8.30
2016,04,27,02,18,8.30
2016,04,27,02,19,8.30
2016,04,27,02,20,8.30
2016,04,27,02,21,8.30
2016,04,27,02,22,8.30
2016,04,27,02,23,8.30
2016,04,27,02,24,8.30
2016,04,27,02,25,8.30
2016,04,27,02,26,8.30
2016,04,27,02,27,8.30
2016,04,27,02,28,8.30
2016,04,27,02,29,8.30
2016,04,27,02,30,8.20
2016,04,27,02,31,8.20
2016,04,27,02,32,8.20
2016,04,27,02,33,8.20
2016,04,27,02,34,8.20
2016,04,27,02,35,8.20
2016,04,27,02,36,8.20
2016,04,27,02,37,8.20
2016,04,27,02,38,8.20
2016,04,27,02,39,8.20
2016,04,27,02,40,8.20
2016,04,27,02,41,8.20
2016,04,27,02,42,8.20
2016,04,27,02,43,8.20
2016,04,27,02,44,8.20
2016,04,27,02,45,8.20
2016,04,27,02,46,8.20
2016,04,27,02,47,8.20
2016,04,27,02,48,8.20
2016,04,27,02,49,8.20
2016,04,27,02,50,8.20
2016,04,27,02,51,8.20
2016,04,27,02,52,8.20
2016,04,27,02,53,8.20
2016,04,27,02,54,8.20
2016,04,27,02,55,8.20
2016,04,27,02,56,8.20
2016,04,27,02,57,8.20
2016,04,27,02,58,8.20
2016,04,27,02,59,8.20
2016,04,27,03,00,8.20
2016,04,27,03,01,8.20
2016,04,27,03,02,8.20
2016,04,27,03,03,8.20
2016,04,27,03,04,8.20
2016,04,27,03,05,8.20
2016,04,27,03,06,8.20
2016,04,27,03,07,8.20
2016,04,27,03,08,8.20
2016,04,27,03,09,8.20
2016,04,27,03,10,8.20
2016,04,27,03,11,8.20
2016,04,27,03,12,8.20
2016,04,27,03,13,8.20
2016,04,27,03,14,8.20
2016,04,27,03,15,8.20
2016,04,27,03,16,8.20
2016,04,27,03,17,8.20
2016,04,27,03,18,8.20
2016,04,27,03,19,8.20
2016,04,27,03,20,8.20
2016,04,27,03,21,8.20
2016,04,27,03,22,8.20
2016,04,27,03,23,8.20
2016,04,27,03,24,8.20
2016,04,27,03,25,8.20
2016,04,27,03,26,8.10
2016,04,27,03,27,8.10
2016,04,27,03,28,8.10
2016,04,27,03,29,8.10
2016,04,27,03,30,8.10
2016,04,27,03,31,8.10
2016,04,27,03,32,8.00
2016,04,27,03,33,8.00
2016,04,27,03,34,8.00
2016,04,27,03,35,8.00
2016,04,27,03,36,8.00
2016,04,27,03,37,8.00
2016,04,27,03,38,8.00
2016,04,27,03,39,8.00
2016,04,27,03,40,8.00
2016,04,27,03,41,8.00
2016,04,27,03,42,8.00
2016,04,27,03,43,8.00
2016,04,27,03,44,7.90
2016,04,27,03,45,7.90
2016,04,27,03,46,7.90
2016,04,27,03,47,7.90
2016,04,27,03,48,7.90
2016,04,27,03,49,7.90
2016,04,27,03,50,7.90
2016,04,27,03,51,7.90
2016,04,27,03,52,7.90
2016,04,27,03,53,7.90
2016,04,27,03,54,7.90
2016,04,27,03,55,7.90
2016,04,27,03,56,7.90
2016,04,27,03,57,7.90
2016,04,27,03,58,7.90
2016,04,27,03,59,7.90
2016,04,27,04,00,7.90
2016,04,27,04,01,7.90
2016,04,27,04,02,7.90
2016,04,27,04,03,7.90
2016,04,27,04,04,7.90
2016,04,27,04,05,7.90
2016,04,27,04,06,7.90
2016,04,27,04,07,7.90
2016,04,27,04,08,7.90
2016,04,27,04,09,7.90
2016,04,27,04,10,7.90
2016,04,27,04,11,7.90
2016,04,27,04,12,7.90
2016,04,27,04,13,7.90
2016,04,27,04,14,7.90
2016,04,27,04,15,7.90
2016,04,27,04,16,7.90
2016,04,27,04,17,7.90
2016,04,27,04,18,7.90
2016,04,27,04,19,7.90
2016,04,27,04,20,7.90
2016,04,27,04,21,7.90
2016,04,27,04,22,7.90
2016,04,27,04,23,7.90
2016,04,27,04,24,7.90
2016,04,27,04,25,7.90
2016,04,27,04,26,7.90
2016,04,27,04,27,7.90
2016,04,27,04,28,7.90
2016,04,27,04,29,7.90
2016,04,27,04,30,7.90
2016,04,27,04,31,7.90
2016,04,27,04,32,7.90
2016,04,27,04,33,7.90
2016,04,27,04,34,7.90
2016,04,27,04,35,7.90
2016,04,27,04,36,7.90
2016,04,27,04,37,7.90
2016,04,27,04,38,7.90
2016,04,27,04,39,7.90
2016,04,27,04,40,7.90
2016,04,27,04,41,7.90
2016,04,27,04,42,7.90
2016,04,27,04,43,7.90
2016,04,27,04,44,7.90
2016,04,27,04,45,7.90
2016,04,27,04,46,7.90
2016,04,27,04,47,7.90
2016,04,27,04,48,7.90
2016,04,27,04,49,7.90
2016,04,27,04,50,7.90
2016,04,27,04,51,7.90
2016,04,27,04,52,7.90
2016,04,27,04,53,7.90
2016,04,27,04,54,7.90
2016,04,27,04,55,7.90
2016,04,27,04,56,7.90
2016,04,27,04,57,7.90
2016,04,27,04,58,7.90
2016,04,27,04,59,7.90
2016,04,27,05,00,7.90
2016,04,27,05,01,7.90
2016,04,27,05,02,7.90
2016,04,27,05,03,7.90
2016,04,27,05,04,7.90
2016,04,27,05,05,7.90
2016,04,27,05,06,7.90
2016,04,27,05,07,7.90
2016,04,27,05,08,7.90
2016,04,27,05,09,7.90
2016,04,27,05,10,7.90
2016,04,27,05,11,7.90
2016,04,27,05,12,7.90
2016,04,27,05,13,7.80
2016,04,27,05,14,7.90
2016,04,27,05,15,7.80
2016,04,27,05,16,7.80
2016,04,27,05,17,7.80
2016,04,27,05,18,7.80
2016,04,27,05,19,7.80
2016,04,27,05,20,7.80
2016,04,27,05,21,7.80
2016,04,27,05,22,7.80
2016,04,27,05,23,7.80
2016,04,27,05,24,7.80
2016,04,27,05,25,7.80
2016,04,27,05,26,7.80
2016,04,27,05,27,7.80
2016,04,27,05,28,7.80
2016,04,27,05,29,7.80
2016,04,27,05,30,7.80
2016,04,27,05,31,7.80
2016,04,27,05,32,7.80
2016,04,27,05,33,7.80
2016,04,27,05,34,7.80
2016,04,27,05,35,7.80
2016,04,27,05,36,7.80
2016,04,27,05,37,7.80
2016,04,27,05,38,7.80
2016,04,27,05,39,7.80
2016,04,27,05,40,7.80
2016,04,27,05,41,7.80
2016,04,27,05,42,7.80
2016,04,27,05,43,7.80
2016,04,27,05,44,7.80
2016,04,27,05,45,7.80
2016,04,27,05,46,7.80
2016,04,27,05,47,7.80
2016,04,27,05,48,7.80
2016,04,27,05,49,7.80
2016,04,27,05,50,7.80
2016,04,27,05,51,7.80
2016,04,27,05,52,7.80
2016,04,27,05,53,7.80
2016,04,27,05,54,7.80
2016,04,27,05,55,7.80
2016,04,27,05,56,7.80
2016,04,27,05,57,7.80
2016,04,27,05,58,7.80
2016,04,27,05,59,7.80
2016,04,27,06,00,7.80
2016,04,27,06,01,7.80
2016,04,27,06,02,7.80
2016,04,27,06,03,7.80
2016,04,27,06,04,7.80
2016,04,27,06,05,7.80
2016,04,27,06,06,7.80
2016,04,27,06,07,7.80
2016,04,27,06,08,7.80
2016,04,27,06,09,7.80
2016,04,27,06,10,7.80
2016,04,27,06,11,7.80
2016,04,27,06,12,7.80
2016,04,27,06,13,7.80
2016,04,27,06,14,7.80
2016,04,27,06,15,7.80
2016,04,27,06,16,7.80
2016,04,27,06,17,7.80
2016,04,27,06,18,7.80
2016,04,27,06,19,7.80
2016,04,27,06,20,7.80
2016,04,27,06,21,7.80
2016,04,27,06,22,7.80
2016,04,27,06,23,7.80
2016,04,27,06,24,7.80
2016,04,27,06,25,7.80
2016,04,27,06,26,7.80
2016,04,27,06,27,7.80
2016,04,27,06,28,7.80
2016,04,27,06,29,7.80
2016,04,27,06,30,7.80
2016,04,27,06,31,7.80
2016,04,27,06,32,7.80
2016,04,27,06,33,7.80
2016,04,27,06,34,7.80
2016,04,27,06,35,7.80
2016,04,27,06,36,7.80
2016,04,27,06,37,7.80
2016,04,27,06,38,7.80
2016,04,27,06,39,7.80
2016,04,27,06,40,7.80
2016,04,27,06,41,7.80
2016,04,27,06,42,7.80
2016,04,27,06,43,7.80
2016,04,27,06,44,7.80
2016,04,27,06,45,7.80
2016,04,27,06,46,7.80
2016,04,27,06,47,7.80
2016,04,27,06,48,7.80
2016,04,27,06,49,7.80
2016,04,27,06,50,7.80
2016,04,27,06,51,7.80
2016,04,27,06,52,7.80
2016,04,27,06,53,7.80
2016,04,27,06,54,7.80
2016,04,27,06,55,7.80
2016,04,27,06,56,7.80
2016,04,27,06,57,7.80
2016,04,27,06,58,7.80
2016,04,27,06,59,7.80
2016,04,27,07,00,7.80
2016,04,27,07,01,7.90
2016,04,27,07,02,7.90
2016,04,27,07,03,7.90
2016,04,27,07,04,7.90
2016,04,27,07,05,7.90
2016,04,27,07,06,7.90
2016,04,27,07,07,7.90
2016,04,27,07,08,7.90
2016,04,27,07,09,7.90
2016,04,27,07,10,7.90
2016,04,27,07,11,7.90
2016,04,27,07,12,7.90
2016,04,27,07,13,7.90
2016,04,27,07,14,8.00
2016,04,27,07,15,8.00
2016,04,27,07,16,8.00
2016,04,27,07,17,8.00
2016,04,27,07,18,8.00
2016,04,27,07,19,8.00
2016,04,27,07,20,8.00
2016,04,27,07,21,8.00
2016,04,27,07,22,8.10
2016,04,27,07,23,8.10
2016,04,27,07,24,8.10
2016,04,27,07,25,8.10
2016,04,27,07,26,8.10
2016,04,27,07,27,8.10
2016,04,27,07,28,8.10
2016,04,27,07,29,8.10
2016,04,27,07,30,8.10
2016,04,27,07,31,8.10
2016,04,27,07,32,8.10
2016,04,27,07,33,8.10
2016,04,27,07,34,8.20
2016,04,27,07,35,8.20
2016,04,27,07,36,8.20
2016,04,27,07,37,8.20
2016,04,27,07,38,8.20
2016,04,27,07,39,8.20
2016,04,27,07,40,8.30
2016,04,27,07,41,8.30
2016,04,27,07,42,8.30
2016,04,27,07,43,8.30
2016,04,27,07,44,8.30
2016,04,27,07,45,8.30
2016,04,27,07,46,8.30
2016,04,27,07,47,8.30
2016,04,27,07,48,8.30
2016,04,27,07,49,8.30
2016,04,27,07,50,8.30
2016,04,27,07,51,8.40
2016,04,27,07,52,8.40
2016,04,27,07,53,8.40
2016,04,27,07,54,8.40
2016,04,27,07,55,8.40
2016,04,27,07,56,8.40
2016,04,27,07,57,8.50
2016,04,27,07,58,8.50
2016,04,27,07,59,8.50
2016,04,27,08,00,8.50
2016,04,27,08,01,8.50
2016,04,27,08,02,8.50
2016,04,27,08,03,8.50
2016,04,27,08,04,8.50
2016,04,27,08,05,8.60
2016,04,27,08,06,8.60
2016,04,27,08,07,8.60
2016,04,27,08,08,8.60
2016,04,27,08,09,8.60
2016,04,27,08,10,8.70
2016,04,27,08,11,8.70
2016,04,27,08,12,8.70
2016,04,27,08,13,8.70
2016,04,27,08,14,8.70
2016,04,27,08,15,8.70
2016,04,27,08,16,8.70
2016,04,27,08,17,8.70
2016,04,27,08,18,8.70
2016,04,27,08,19,8.80
2016,04,27,08,20,8.80
2016,04,27,08,21,8.80
2016,04,27,08,22,8.80
2016,04,27,08,23,8.80
2016,04,27,08,24,8.90
2016,04,27,08,25,8.90
2016,04,27,08,26,8.90
2016,04,27,08,27,8.90
2016,04,27,08,28,8.90
2016,04,27,08,29,9.00
2016,04,27,08,30,9.00
2016,04,27,08,31,9.10
2016,04,27,08,32,9.10
2016,04,27,08,33,9.10
2016,04,27,08,34,9.10
2016,04,27,08,35,9.10
2016,04,27,08,36,9.10
2016,04,27,08,37,9.10
2016,04,27,08,38,9.10
2016,04,27,08,39,9.10
2016,04,27,08,40,9.10
2016,04,27,08,41,9.10
2016,04,27,08,42,9.10
2016,04,27,08,43,9.10
2016,04,27,08,44,9.10
2016,04,27,08,45,9.20
2016,04,27,08,46,9.20
2016,04,27,08,47,9.20
2016,04,27,08,48,9.30
2016,04,27,08,49,9.30
2016,04,27,08,50,9.30
2016,04,27,08,51,9.40
2016,04,27,08,52,9.40
2016,04,27,08,53,9.40
2016,04,27,08,54,9.50
2016,04,27,08,55,9.50
2016,04,27,08,56,9.60
2016,04,27,08,57,9.60
2016,04,27,08,58,9.60
2016,04,27,08,59,9.60
2016,04,27,09,00,9.60
2016,04,27,09,01,9.60
2016,04,27,09,02,9.60
2016,04,27,09,03,9.60
2016,04,27,09,04,9.70
2016,04,27,09,05,9.70
2016,04,27,09,06,9.70
2016,04,27,09,07,9.80
2016,04,27,09,08,9.80
2016,04,27,09,09,9.80
2016,04,27,09,10,9.80
2016,04,27,09,11,9.90
2016,04,27,09,12,9.90
2016,04,27,09,13,9.90
2016,04,27,09,14,10.00
2016,04,27,09,15,10.00
2016,04,27,09,16,10.10
2016,04,27,09,17,10.10
2016,04,27,09,18,10.20
2016,04,27,09,19,10.20
2016,04,27,09,20,10.20
2016,04,27,09,21,10.20
2016,04,27,09,22,10.20
2016,04,27,09,23,10.20
2016,04,27,09,24,10.20
2016,04,27,09,25,10.20
2016,04,27,09,26,10.20
2016,04,27,09,27,10.20
2016,04,27,09,28,10.20
2016,04,27,09,29,10.20
2016,04,27,09,30,10.20
2016,04,27,09,31,10.20
2016,04,27,09,32,10.20
2016,04,27,09,33,10.30
2016,04,27,09,34,10.30
2016,04,27,09,35,10.30
2016,04,27,09,36,10.30
2016,04,27,09,37,10.40
2016,04,27,09,38,10.40
2016,04,27,09,39,10.40
2016,04,27,09,40,10.50
2016,04,27,09,41,10.60
2016,04,27,09,42,10.60
2016,04,27,09,43,10.60
2016,04,27,09,44,10.70
2016,04,27,09,45,10.80
2016,04,27,09,46,10.80
2016,04,27,09,47,10.70
2016,04,27,09,48,10.70
2016,04,27,09,49,10.70
2016,04,27,09,50,10.70
2016,04,27,09,51,10.70
2016,04,27,09,52,10.70
2016,04,27,09,53,10.70
2016,04,27,09,54,10.70
2016,04,27,09,55,10.70
2016,04,27,09,56,10.70
2016,04,27,09,57,10.70
2016,04,27,09,58,10.70
2016,04,27,09,59,10.70
2016,04,27,10,00,10.70
2016,04,27,10,01,10.70
2016,04,27,10,02,10.70
2016,04,27,10,03,10.80
2016,04,27,10,04,10.90
2016,04,27,10,05,10.90
2016,04,27,10,06,10.90
2016,04,27,10,07,11.00
2016,04,27,10,08,11.00
2016,04,27,10,09,11.10
2016,04,27,10,10,11.10
2016,04,27,10,11,11.20
2016,04,27,10,12,11.20
2016,04,27,10,13,11.20
2016,04,27,10,14,11.20
2016,04,27,10,15,11.30
2016,04,27,10,16,11.30
2016,04,27,10,17,11.30
2016,04,27,10,18,11.30
2016,04,27,10,19,11.30
2016,04,27,10,20,11.30
2016,04,27,10,21,11.40
2016,04,27,10,22,11.50
2016,04,27,10,23,11.60
2016,04,27,10,24,11.60
2016,04,27,10,25,11.70
2016,04,27,10,26,11.70
2016,04,27,10,27,11.70
2016,04,27,10,28,11.70
2016,04,27,10,29,11.70
2016,04,27,10,30,11.70
2016,04,27,10,31,11.70
2016,04,27,10,32,11.70
2016,04,27,10,33,11.80
2016,04,27,10,34,11.80
2016,04,27,10,35,11.80
2016,04,27,10,36,11.90
2016,04,27,10,37,11.90
2016,04,27,10,38,11.90
2016,04,27,10,39,12.00
2016,04,27,10,40,12.00
2016,04,27,10,41,11.90
2016,04,27,10,42,11.90
2016,04,27,10,43,11.90
2016,04,27,10,44,11.90
2016,04,27,10,45,11.90
2016,04,27,10,46,12.00
2016,04,27,10,47,11.90
2016,04,27,10,48,11.90
2016,04,27,10,49,11.90
2016,04,27,10,50,12.00
2016,04,27,10,51,12.00
2016,04,27,10,52,12.00
2016,04,27,10,53,12.00
2016,04,27,10,54,12.10
2016,04,27,10,55,12.10
2016,04,27,10,56,12.20
2016,04,27,10,57,12.30
2016,04,27,10,58,12.30
2016,04,27,10,59,12.30
2016,04,27,11,00,12.30
2016,04,27,11,01,12.30
2016,04,27,11,02,12.30
2016,04,27,11,03,12.30
2016,04,27,11,04,12.30
2016,04,27,11,05,12.30
2016,04,27,11,06,12.30
2016,04,27,13,05,15.20
2016,04,27,13,06,15.30
2016,04,27,13,07,15.40
2016,04,27,13,08,15.50
2016,04,27,13,09,15.60
2016,04,27,13,10,15.60
2016,04,27,13,11,15.60
2016,04,27,13,12,15.60
2016,04,27,13,13,15.60
2016,04,27,13,14,15.50
2016,04,27,13,15,15.50
2016,04,27,13,16,15.40
2016,04,27,13,17,15.40
2016,04,27,13,18,15.40
2016,04,27,13,19,15.30
2016,04,27,13,20,15.30
2016,04,27,13,21,15.30
2016,04,27,13,22,15.30
2016,04,27,13,23,15.30
2016,04,27,13,24,15.20
2016,04,27,13,25,15.20
2016,04,27,13,26,15.20
2016,04,27,13,27,15.20
2016,04,27,13,28,15.20
2016,04,27,13,29,15.30
2016,04,27,13,30,15.30
2016,04,27,13,31,15.20
2016,04,27,13,32,15.20
2016,04,27,13,33,15.20
2016,04,27,13,34,15.20
2016,04,27,13,35,15.20
2016,04,27,13,36,15.20
2016,04,27,13,37,15.30
2016,04,27,13,38,15.40
2016,04,27,13,39,15.50
2016,04,27,13,40,15.50
2016,04,27,13,41,15.60
2016,04,27,13,42,15.60
2016,04,27,13,43,15.60
2016,04,27,13,44,15.60
2016,04,27,13,45,15.60
2016,04,27,13,46,15.70
2016,04,27,13,47,15.70
2016,04,27,13,48,15.70
2016,04,27,13,49,15.70
2016,04,27,13,50,15.70
2016,04,27,13,51,15.80
2016,04,27,13,52,15.90
2016,04,27,13,53,16.00
2016,04,27,13,54,16.00
2016,04,27,13,55,16.00
2016,04,27,13,56,16.00
2016,04,27,13,57,16.00
2016,04,27,13,58,16.10
2016,04,27,13,59,16.20
2016,04,27,14,00,16.30
2016,04,27,14,01,16.40
2016,04,27,14,02,16.50
2016,04,27,14,03,16.60
2016,04,27,14,04,16.50
2016,04,27,14,05,16.50
2016,04,27,14,06,16.50
2016,04,27,14,07,16.60
2016,04,27,14,08,16.60
2016,04,27,14,09,16.70
2016,04,27,14,10,16.70
2016,04,27,14,11,16.70
2016,04,27,14,12,16.60
2016,04,27,14,13,16.50
2016,04,27,14,14,16.40
2016,04,27,14,15,16.30
2016,04,27,14,16,16.30
2016,04,27,14,17,16.30
2016,04,27,14,18,16.40
2016,04,27,14,19,16.50
2016,04,27,14,20,16.40
2016,04,27,14,21,16.40
2016,04,27,14,22,16.40
2016,04,27,14,23,16.30
2016,04,27,14,24,16.30
2016,04,27,14,25,16.40
2016,04,27,14,26,16.50
2016,04,27,14,27,16.50
2016,04,27,14,28,16.60
2016,04,27,14,29,16.70
2016,04,27,14,30,16.70
2016,04,27,14,31,16.70
2016,04,27,14,32,16.70
2016,04,27,14,33,16.70
2016,04,27,14,34,16.60
2016,04,27,14,35,16.60
2016,04,27,14,36,16.60
2016,04,27,14,37,16.60
2016,04,27,14,38,16.60
2016,04,27,14,39,16.60
2016,04,27,14,40,16.70
2016,04,27,14,41,16.90
2016,04,27,14,42,16.90
2016,04,27,14,43,17.00
2016,04,27,14,44,17.00
2016,04,27,14,45,16.90
2016,04,27,14,46,16.90
2016,04,27,14,47,16.90
2016,04,27,14,48,16.80
2016,04,27,14,49,16.80
2016,04,27,14,50,16.80
2016,04,27,14,51,16.90
2016,04,27,14,52,17.00
2016,04,27,14,53,17.10
2016,04,27,14,54,17.20
2016,04,27,14,55,17.30
2016,04,27,14,56,17.30
2016,04,27,14,57,17.40
2016,04,27,14,58,17.40
2016,04,27,14,59,17.50
2016,04,27,15,00,17.70
2016,04,27,15,01,17.70
2016,04,27,15,02,17.90
2016,04,27,15,03,18.00
2016,04,27,15,04,18.00
2016,04,27,15,05,18.10
2016,04,27,15,06,18.10
2016,04,27,15,07,18.00
2016,04,27,15,08,17.90
2016,04,27,15,09,17.90
2016,04,27,15,10,17.80
2016,04,27,15,11,17.80
2016,04,27,15,12,17.80
2016,04,27,15,13,17.80
2016,04,27,15,14,17.70
2016,04,27,15,15,17.60
2016,04,27,15,16,17.60
2016,04,27,15,17,17.50
2016,04,27,15,18,17.60
2016,04,27,15,19,17.60
2016,04,27,15,20,17.60
2016,04,27,15,21,17.50
2016,04,27,15,22,17.50
2016,04,27,15,23,17.40
2016,04,27,15,24,17.50
2016,04,27,15,25,17.60
2016,04,27,15,26,17.60
2016,04,27,15,27,17.70
2016,04,27,15,28,17.80
2016,04,27,15,29,17.80
2016,04,27,15,30,17.80
2016,04,27,15,31,17.80
2016,04,27,15,32,17.70
2016,04,27,15,33,17.60
2016,04,27,15,34,17.60
2016,04,27,15,35,17.60
2016,04,27,15,36,17.60
2016,04,27,15,37,17.60
2016,04,27,15,38,17.60
2016,04,27,15,39,17.60
2016,04,27,15,40,17.50
2016,04,27,15,41,17.50
2016,04,27,15,42,17.50
2016,04,27,15,43,17.60
2016,04,27,15,44,17.60
2016,04,27,15,45,17.60
2016,04,27,15,46,17.60
2016,04,27,15,47,17.60
2016,04,27,15,48,17.60
2016,04,27,15,49,17.80
2016,04,27,15,50,17.80
2016,04,27,15,51,17.70
2016,04,27,15,52,17.60
2016,04,27,15,53,17.60
2016,04,27,15,54,17.60
2016,04,27,15,55,17.60
2016,04,27,15,56,17.60
2016,04,27,15,57,17.60
2016,04,27,15,58,17.60
2016,04,27,15,59,17.60
2016,04,27,16,00,17.50
2016,04,27,16,01,17.50
2016,04,27,16,02,17.50
2016,04,27,16,03,17.60
2016,04,27,16,04,17.60
2016,04,27,16,05,17.70
2016,04,27,16,06,17.70
2016,04,27,16,07,17.70
2016,04,27,16,08,17.70
2016,04,27,16,09,17.70
2016,04,27,16,10,17.70
2016,04,27,16,11,17.80
2016,04,27,16,12,17.70
2016,04,27,16,13,17.70
2016,04,27,16,14,17.70
2016,04,27,16,15,17.70
2016,04,27,16,16,17.70
2016,04,27,16,17,17.70
2016,04,27,16,18,17.70
2016,04,27,16,19,17.80
2016,04,27,16,20,17.80
2016,04,27,16,21,17.80
2016,04,27,16,22,17.80
2016,04,27,16,23,17.80
2016,04,27,16,24,17.80
2016,04,27,16,25,17.90
2016,04,27,16,26,18.00
2016,04,27,16,27,18.00
2016,04,27,16,28,18.10
2016,04,27,16,29,18.10
2016,04,27,16,30,18.10
2016,04,27,16,31,18.30
2016,04,27,16,32,18.30
2016,04,27,16,33,18.40
2016,04,27,16,34,18.40
2016,04,27,16,35,18.30
2016,04,27,16,36,18.20
2016,04,27,16,37,18.20
2016,04,27,16,38,18.20
2016,04,27,16,39,18.20
2016,04,27,16,40,18.30
2016,04,27,16,41,18.30
2016,04,27,16,42,18.40
2016,04,27,16,43,18.60
2016,04,27,16,44,18.60
2016,04,27,16,45,18.60
2016,04,27,16,46,18.60
2016,04,27,16,47,18.60
2016,04,27,16,48,18.70
2016,04,27,16,49,18.70
2016,04,27,16,50,18.70
2016,04,27,16,51,18.70
2016,04,27,16,52,18.80
2016,04,27,16,53,18.90
2016,04,27,16,54,19.00
2016,04,27,16,55,19.10
2016,04,27,16,56,19.10
2016,04,27,16,57,19.10
2016,04,27,16,58,19.10
2016,04,27,16,59,19.20
2016,04,27,17,00,19.10
2016,04,27,17,01,19.10
2016,04,27,17,02,19.10
2016,04,27,17,03,19.00
2016,04,27,17,04,18.90
2016,04,27,17,05,18.90
2016,04,27,17,06,18.90
2016,04,27,17,07,18.90
2016,04,27,17,08,18.90
2016,04,27,17,09,18.90
2016,04,27,17,10,18.80
2016,04,27,17,11,18.90
2016,04,27,17,12,18.90
2016,04,27,17,13,18.80
2016,04,27,17,14,18.80
2016,04,27,17,15,18.80
2016,04,27,17,16,18.80
2016,04,27,17,17,18.80
2016,04,27,17,18,18.80
2016,04,27,17,19,18.80
2016,04,27,17,20,18.80
2016,04,27,17,21,18.80
2016,04,27,17,22,18.70
2016,04,27,17,23,18.70
2016,04,27,17,24,18.70
2016,04,27,17,25,18.70
2016,04,27,17,26,18.70
2016,04,27,17,27,18.70
2016,04,27,17,28,18.70
2016,04,27,17,29,18.70
2016,04,27,17,30,18.70
2016,04,27,17,31,18.70
2016,04,27,17,32,18.70
2016,04,27,17,33,18.70
2016,04,27,17,34,18.80
2016,04,27,17,35,18.80
2016,04,27,17,36,18.80
2016,04,27,17,37,18.80
2016,04,27,17,38,18.80
2016,04,27,17,39,18.80
2016,04,27,17,40,18.80
2016,04,27,17,41,18.80
2016,04,27,17,42,18.80
2016,04,27,17,43,18.90
2016,04,27,17,44,18.90
2016,04,27,17,45,19.00
2016,04,27,17,46,19.00
2016,04,27,17,47,19.10
2016,04,27,17,48,19.10
2016,04,27,17,49,19.10
2016,04,27,17,50,19.10
2016,04,27,17,51,19.20
2016,04,27,17,52,19.20
2016,04,27,17,53,19.30
2016,04,27,17,54,19.30
2016,04,27,17,55,19.30
2016,04,27,17,56,19.20
2016,04,27,17,57,19.10
2016,04,27,17,58,19.10
2016,04,27,17,59,19.00
2016,04,27,18,00,18.90
2016,04,27,18,01,18.80
2016,04,27,18,02,18.80
2016,04,27,18,03,18.80
2016,04,27,18,04,18.70
2016,04,27,18,05,18.70
2016,04,27,18,06,18.80
2016,04,27,18,07,18.80
2016,04,27,18,08,18.80
2016,04,27,18,09,18.80
2016,04,27,18,10,18.90
2016,04,27,18,11,18.80
2016,04,27,18,12,18.80
2016,04,27,18,13,18.80
2016,04,27,18,14,18.80
2016,04,27,18,15,18.60
2016,04,27,18,16,18.60
2016,04,27,18,17,18.60
2016,04,27,18,18,18.50
2016,04,27,18,19,18.50
2016,04,27,18,20,18.50
2016,04,27,18,21,18.50
2016,04,27,18,22,18.40
2016,04,27,18,23,18.40
2016,04,27,18,24,18.30
2016,04,27,18,25,18.30
2016,04,27,18,26,18.30
2016,04,27,18,27,18.30
2016,04,27,18,28,18.20
2016,04,27,18,29,18.20
2016,04,27,18,30,18.20
2016,04,27,18,31,18.30
2016,04,27,18,32,18.30
2016,04,27,18,33,18.30
2016,04,27,18,34,18.30
2016,04,27,18,35,18.30
2016,04,27,18,36,18.30
2016,04,27,18,37,18.30
2016,04,27,18,38,18.30
2016,04,27,18,39,18.30
2016,04,27,18,40,18.30
2016,04,27,18,41,18.20
2016,04,27,18,42,18.20
2016,04,27,18,43,18.20
2016,04,27,18,44,18.10
2016,04,27,18,45,18.10
2016,04,27,18,46,18.10
2016,04,27,18,47,18.10
2016,04,27,18,48,18.20
2016,04,27,18,49,18.20
2016,04,27,18,50,18.20
2016,04,27,18,51,18.20
2016,04,27,18,52,18.20
2016,04,27,18,53,18.10
2016,04,27,18,54,18.10
2016,04,27,18,55,18.10
2016,04,27,18,56,18.10
2016,04,27,18,57,18.10
2016,04,27,18,58,18.10
2016,04,27,18,59,18.10
2016,04,27,19,00,18.10
2016,04,27,19,01,18.00
2016,04,27,19,02,18.00
2016,04,27,19,03,18.00
2016,04,27,19,04,17.90
2016,04,27,19,05,17.90
2016,04,27,19,06,17.90
2016,04,27,19,07,17.80
2016,04,27,19,08,17.90
2016,04,27,19,09,17.90
2016,04,27,19,10,17.90
2016,04,27,19,11,17.90
2016,04,27,19,12,17.90
2016,04,27,19,13,17.80
2016,04,27,19,14,17.80
2016,04,27,19,15,17.80
2016,04,27,19,16,17.70
2016,04,27,19,17,17.70
2016,04,27,19,18,17.70
2016,04,27,19,19,17.70
2016,04,27,19,20,17.70
2016,04,27,19,21,17.70
2016,04,27,19,22,17.70
2016,04,27,19,23,17.70
2016,04,27,19,24,17.70
2016,04,27,19,25,17.70
2016,04,27,19,26,17.70
2016,04,27,19,27,17.70
2016,04,27,19,28,17.70
2016,04,27,19,29,17.70
2016,04,27,19,30,17.70
2016,04,27,19,31,17.70
2016,04,27,19,32,17.70
2016,04,27,19,33,17.70
2016,04,27,19,34,17.70
2016,04,27,19,35,17.80
2016,04,27,19,36,17.70
2016,04,27,19,37,17.70
2016,04,27,19,38,17.70
2016,04,27,19,39,17.60
2016,04,27,19,40,17.50
2016,04,27,19,41,17.40